Starlink 11232

operational
NORAD ID: 60401 Int'l Des: 2024-141 Owner: SPXS Country: US Constellation: starlink
LEOCIRCULAR

关于 Starlink 11232

正在加载描述...

实时位置

正在加载3D地球...

即将过境

高度历史

Altitude vs Time

uPlot chart will show altitude changes over time

两行轨道根数

1 60401U 24141D 25259.08991116 .00000465 00000-0 86945-5 0 9993
2 60401 53.1584 226.7121 0001292 71.6998 288.4160 15.69714919 64320
Epoch: Sep 16, 2025 • Age: 14 hours

当前状态

高度 363.1 km
速度 7.70 km/s
星下点 43.22°N, 30.02°E
发射日期 Aug 10, 2024
运行时间 1.1 years
类型 internet

技术详情

分类 Payload
质量 960.00 kg
干质量 910.00 kg
总质量 960.00 kg
长度 0.30 m
直径 4.10 m
跨度 29.00 m
形状 Box + pan
制造商 SPXS
平台类型 Starlink V2MD
阶段状态 In Orbit
所有者/国家 SPXS/US

大型星座

Loading constellations...